EW0209 Weather Reports


time (UTC)temp
C
wind
direction
speed
KPH
gust
KPH
rain 1hr
cm
rain 24hr
cm
rain mn
cm
humidity
%
barometer
mb
20260502123028 16 360 1.6 4.8 0.00 0.00 0.00 40 1013.7
20260502121529 16 360 1.6 4.8 0.00 0.00 0.00 40 1013.4
20260502114523 16 360 0.0 3.2 0.00 0.00 0.00 38 1013.1
20260502113022 16 360 3.2 6.4 0.00 0.00 0.00 39 1013.0
20260502111522 16 360 0.0 4.8 0.00 0.00 0.00 42 1013.1
20260502110021 16 360 0.0 4.8 0.00 0.00 0.00 41 1013.1
20260502104520 16 360 1.6 4.8 0.00 0.00 0.00 43 1013.2
20260502103021 16 360 0.0 9.7 0.00 0.00 0.00 43 1013.1
20260502101514 16 360 4.8 8.0 0.00 0.00 0.00 39 1012.7
20260502091508 18 360 3.2 8.0 0.00 0.00 0.00 32 1012.5
20260502070056 21 360 1.6 4.8 0.00 0.00 0.00 26 1011.9
20260502064559 21 360 1.6 4.8 0.00 0.00 0.00 27 1011.9
20260502063052 21 360 3.2 4.8 0.00 0.00 0.00 29 1012.0
20260502061549 21 360 1.6 6.4 0.00 0.00 0.00 28 1012.0
20260502060047 22 360 3.2 6.4 0.00 0.00 0.00 24 1011.8
20260502054553 22 360 3.2 6.4 0.00 0.00 0.00 26 1011.8
20260502053043 20 360 4.8 9.7 0.00 0.00 0.00 32 1011.7
20260502051543 21 360 3.2 8.0 0.00 0.00 0.00 32 1011.7
20260502050043 22 360 3.2 4.8 0.00 0.00 0.00 28 1011.6
20260502044542 22 360 1.6 4.8 0.00 0.00 0.00 28 1011.5
20260502043047 23 360 1.6 3.2 0.00 0.00 0.00 29 1011.5
20260502041542 23 360 1.6 8.0 0.00 0.00 0.00 27 1011.2
20260502040052 25 360 1.6 4.8 0.00 0.00 0.00 23 1011.1
20260502034540 26 360 1.6 3.2 0.00 0.00 0.00 21 1010.9
20260502033039 26 360 0.0 3.2 0.00 0.00 0.00 19 1010.8
20260502031547 27 360 1.6 4.8 0.00 0.00 0.00 18 1010.6
20260502030039 27 360 3.2 6.4 0.00 0.00 0.00 19 1010.4
20260502024538 27 360 1.6 6.4 0.00 0.00 0.00 19 1010.2
20260502023042 28 360 1.6 4.8 0.00 0.00 0.00 18 1010.2
20260502021538 28 360 1.6 6.4 0.00 0.00 0.00 17 1010.0
20260502020040 29 284 4.8 11.3 0.00 0.00 0.00 16 1009.9
20260502014547 30 311 3.2 9.7 0.00 0.00 0.00 17 1009.8
20260502013035 30 234 4.8 16.1 0.00 0.00 0.00 16 1009.7
20260502011535 31 293 4.8 16.1 0.00 0.00 0.00 17 1009.7
20260502010035 31 229 6.4 16.1 0.00 0.00 0.00 17 1009.7
20260502004535 31 294 9.7 14.5 0.00 0.00 0.00 16 1009.7
20260502003033 31 219 6.4 19.3 0.00 0.00 0.00 17 1009.6
20260502001554 31 278 9.7 20.9 0.00 0.00 0.00 19 1009.7
20260502000035 31 227 6.4 14.5 0.00 0.00 0.00 19 1009.8
20260501234531 31 281 6.4 22.5 0.00 0.00 0.00 17 1009.8
20260501233031 31 360 12.9 24.1 0.00 0.00 0.00 17 1009.8
20260501231532 31 360 6.4 20.9 0.00 0.00 0.00 18 1009.9
20260501230035 31 360 6.4 17.7 0.00 0.00 0.00 19 1010.0
20260501224528 31 360 8.0 17.7 0.00 0.00 0.00 19 1010.0
20260501223029 31 360 11.3 20.9 0.00 0.00 0.00 19 1010.2
20260501221528 31 360 12.9 20.9 0.00 0.00 0.00 18 1010.4
20260501220027 31 360 12.9 24.1 0.00 0.00 0.00 19 1010.6
20260501214526 30 360 6.4 24.1 0.00 0.00 0.00 16 1010.9
20260501213023 31 360 12.9 20.9 0.00 0.00 0.00 20 1011.0
20260501211522 30 360 9.7 22.5 0.00 0.00 0.00 20 1011.3
20260501210031 30 360 9.7 24.1 0.00 0.00 0.00 21 1011.5
20260501204520 30 360 6.4 17.7 0.00 0.00 0.00 21 1011.5
20260501203019 30 360 1.6 17.7 0.00 0.00 0.00 22 1011.7
20260501201519 30 360 9.7 17.7 0.00 0.00 0.00 22 1011.9
20260501200016 29 360 3.2 17.7 0.00 0.00 0.00 23 1011.9
20260501194514 28 360 1.6 8.0 0.00 0.00 0.00 25 1012.2
20260501193013 28 360 3.2 8.0 0.00 0.00 0.00 25 1012.4
20260501191512 27 360 0.0 8.0 0.00 0.00 0.00 26 1012.8
20260501190009 28 360 6.4 14.5 0.00 0.00 0.00 25 1012.9
20260501184509 27 360 3.2 16.1 0.00 0.00 0.00 27 1013.1
20260501183004 27 360 4.8 14.5 0.00 0.00 0.00 26 1013.4
20260501181501 26 360 4.8 17.7 0.00 0.00 0.00 28 1013.6
20260501180058 27 360 6.4 14.5 0.00 0.00 0.00 27 1013.8
20260501174554 26 360 4.8 16.1 0.00 0.00 0.00 29 1013.9
20260501173056 26 360 9.7 17.7 0.00 0.00 0.00 29 1014.0
20260501171547 26 360 8.0 14.5 0.00 0.00 0.00 30 1014.0
20260501170047 25 360 8.0 17.7 0.00 0.00 0.00 33 1014.0
20260501164540 25 360 4.8 12.9 0.00 0.00 0.00 32 1014.1
20260501163038 24 360 3.2 9.7 0.00 0.00 0.00 35 1014.2
20260501161539 23 360 3.2 12.9 0.00 0.00 0.00 37 1014.1
20260501160029 23 360 3.2 9.7 0.00 0.00 0.00 38 1014.0
20260501154525 23 360 3.2 8.0 0.00 0.00 0.00 37 1013.8
20260501153021 22 360 1.6 6.4 0.00 0.00 0.00 40 1013.6
20260501151518 21 360 0.0 3.2 0.00 0.00 0.00 43 1013.5
20260501150029 20 360 1.6 4.8 0.00 0.00 0.00 48 1013.4
20260501144511 20 360 1.6 9.7 0.00 0.00 0.00 53 1013.3
20260501143009 18 360 4.8 8.0 0.00 0.00 0.00 56 1013.2